Погода в Богучаре

Погода в Богучаре : погода сейчас, прогноз погоды и архив. Всё, что Вы хотите узнать о погоде в Богучаре!

Хотите узнать прогноз погоды в Богучаре? Тогда Вам сюда: Погода в Богучаре

Поиск расширенной информации на нашем сайте:

Другие новости

Новости СМИ2

Главная страница сайта

Новости сайта

03.07.2017

Напоминаем, что на нашем специализированном сайте Метеоцентр.Азия вы можете получить высокодетализированные автоматические прогнозы погоды по пунктам России, СНГ и мира в авиационном формате (включающие направление и скорость ветра, видимость, явления погоды, количество и форму облачности, нижнюю и верхнюю границу облачности).


Погода в Богучаре - сегодня

Время (UTC), дата Ветер
(°,м/с) 
Видим.   Явления Облачность Т
(°С)
Тd
(°С)
f(%) Тe
(°С)
Pmin
(гПа)
dP
(гПа)
Po
(мм)
O2
(г/м3)
Тmin Tmax R s Состояние
почвы
21 18.05.18 230 (ЮЗ) 10 км    10/0 средняя 
[As op]
+18.9 +10.8 59 +22  1011.1  0.7  751  281           
00 19.05.18 200 (Ю) 10 км    10/0 средняя 
[As op]
+16.9 +13.2 79 +24  1011.3  0.1  751  282           
03 19.05.18 180 (Ю) 20000 м    8/4 1000 м верхняя 
[Sc|Cc]
+15.6 +12.9 84 +21  1011  -0.2  751  284  +15.6         
06 19.05.18 230 (ЮЗ) 20000 м    ясно 
+21.4 +13.4 60 +27  1011.1  0.2  751  278           
09 19.05.18 230 (ЮЗ) 5-10{10}  20000 м    8/8 1000 м 
[Cu med, cong]
+24 +11.9 47 +28  1010.8  -0.2  751  276           
12 19.05.18 290 (З) 6-12{12}  20000 м  гроза, ливневой дождь  10/6 600 м кучево-дожд., средняя, верхняя 
[Cb calv|Ac trans|Cc]
+22 +11.5 51 +25  1011.7  0.8  752  278           
15 19.05.18 160 (Ю) 10 км  гроза без осадков{ливн. осадки}  8/8 600 м кучево-дожд. 
[Cb calv]
+18.4 +15.9 85 +29  1011.8  752  280    +26.6     
18 19.05.18 180 (Ю) 10 км  гроза без осадков{ливн. осадки}  8/8 600 м кучево-дожд. 
[Cb calv]
+17.3 +14.7 85 +27  1012.5  0.7  752  282           
21 19.05.18 тихо ()   10 км  {гроза}  ясно 
+15.2 +13.5 90 +21  1013.4  0.7  753  285           
00 20.05.18 тихо ()   10 км  {гроза}  ясно 
+13.1 +12 93 +17  1012.8  -0.6  752  287           
03 20.05.18 180 (Ю) 0500 м  туман  4/0 верхняя 
[Cc]
+12.8 +12.1 96 +18  1013.7  0.9  753  287  +12.2         
06 20.05.18 180 (Ю) 10 км  в посл. час ливневой дождь{туман}  8/0 средняя, верхняя 
[Ac cast|Cc]
+18.3 +15.1 82 +29  1014.5  754  281           
09 20.05.18 200 (Ю) 20000 м    8/6 600 м кучево-дожд., средняя 
[Cb calv|Ac cast]
+23.2 +14.6 58 +31  1014.1  -0.2  753  277           
12 20.05.18 230 (ЮЗ) 20000 м  в посл. час гроза{ливн. осадки}  8/4 600 м кучево-дожд., средняя 
[Cb calv|Ac lent]
+21.3 +13.7 62 +28  1014.3  0.1  753  279           
15 20.05.18 320 (СЗ) 20000 м    8/6 600 м кучево-дожд., средняя 
[Cb calv|Ac lent]
+21.9 +15.4 67 +31  1013.5  -0.8  753  278    +23.7  0.6     
18 20.05.18 360 (С) 10 км    9/9 600 м кучево-дожд. 
[Cb calv]
+19.7 +16.4 81 +32  1014.3  0.7  753  280           
21 20.05.18 020 (С) 10 км    10/0 средняя 
[As trans]
+18.6 +14.7 78 +28  1014  -0.3  753  281           
00 21.05.18 340 (С) 10 км  слаб. ливневой дождь{гроза}  10/8 300 м кучево-дожд., средняя 
[Cb calv|As op]
+16.2 +15.3 94 +26  1014.2  0.1  753  283           
03 21.05.18 050 (СВ) 10 км  в посл. час ливневой дождь  10/8 300 м кучево-дожд., средняя 
[Cb calv|As op]
+16.1 +15.1 94 +26  1014.5  0.3  753  283  +16.1       
06 21.05.18 050 (СВ) 20000 м  {ливн. осадки}  9/6 600 м кучево-дожд., средняя 
[Cb calv|Ac trans]
+18.1 +16.6 91 +30  1016.2  1.7  755  282           
09 21.05.18 110 (В) 20000 м    8/8 600 м кучево-дожд. 
[Cb calv]
+21.8 +16.6 72 +33  1016.5  0.5  755  278           
12 21.05.18 270 (З) 20000 м  гроза без осадков{ливн. осадки}  8/8 600 м кучево-дожд. 
[Cb calv]
+23.9 +15.7 60 +34  1016.7  0.2  755  277           
15 21.05.18 020 (С) 10 км  гроза, ливневой дождь  8/8 600 м кучево-дожд. 
[Cb calv]
+18.9 +16.4 85 +31  1017.6  0.8  756  281    +24.2     
18 21.05.18 020 (С) 10 км  в посл. час гроза{ливн. осадки}  6/6 600 м кучево-дожд. 
[Cb calv]
+17.1 +16.4 96 +30  1018.9  1.2  757  283           
21 21.05.18 050 (СВ) 10 км    ясно 
+15.4 +14 91 +23  1019.1  0.2  757  286           
Время (UTC), дата Ветер
(°,м/с) 
Видим.   Явления Облачность Т
(°С)
Тd
(°С)
f(%) Тe
(°С)
Pmin
(гПа)
dP
(гПа)
Po
(мм)
O2
(г/м3)
Тmin Tmax R s Состояние
почвы

Для получения пояснительной информации подведите курсор к названию столбца.

ПОГОДА в Богучаре - архив

Всё, что Вы хотите узнать о погоде в Богучаре - удобно и подробно!

Выберите нужную дату (начиная с 1 января 2015* года) и нажмите кнопку "Найти".
Будут отображены архивные сводки погоды по пункту Богучар, начиная с указанной даты.


Отображать данные в формате CSV (для использования в таблицах Excel)


Внимание! Наш архив погоды предназначен исключительно для личного некоммерческого использования в познавательных целях. Если Вам необходимы официальные справки о состоянии погоды (для производственных, юридических, коммерческих и т.п. целей), обращайтесь в органы Росгидромета.

*Примечание: данная дата относится к архиву по метеостанциям СССР (Россия, СНГ, Балтия).
Архив по метеостанциям Зарубежной Европы и Азии (кроме Китая) хранится 10 дней, по другим регионам земного шара (Китай, Африка, Америка, Австралия, Океания) - 1 день.

Богучар - район местоположения метеостанции


Название, широта, долгота, высота метеостанции:
Богучар 49.9°ш. 40.6°д. 84 м над ур. моря [Российская Федерация]

Дополнительная информация

В oтличие oт бoльшинства пoгoдных сайтoв мы публикуем пoдрoбную метеoинфoрмацию в детальнoм прoфессиoнальнoм фoрмате.

Характеристики температуры и влажнoсти вoздуха измеряются на высoте 2 м в тени вдали oт зданий и деревьев.
Скoрoсть ветра измеряется на высoте 10 м (на урoвне рoста челoвека скoрoсть ветра ниже в 1.5-2 раза). Если метеoстанция нахoдится в гoрoде или в лесу, тo скoрoсть ветра занижена на 2-4 м/с пo сравнению с oткрытым местoм. Скoрoсть ветра над акватoриями крупных рек и oзёр, а также на вершинах хoлмoв на 2-5 м/с выше, чем в oбычных услoвиях.
Атмoсфернoе давление в разных тoчках местнoсти мoжет значительнo oтличаться oт давления на метеoстанции, в зависимoсти oт услoвий рельефа (при пoдъёме на 10 м давление пoнижается примернo на 1 мм рт.ст.).